Regional Weather Roundup
Issued by NWS

Home | Current Version | Previous Version | Graphics & Text | Print | Product List | Glossary On
Versions: 1 2 3 4 5 6 7 8 9 10 11 12 13 14 15 16 17 18 19 20 21 22 23 24 25 26 27 28 29 30 31 32 33 34 35 36 37 38 39 40 41 42 43 44 45 46 47 48 49 50
000
ASUS45 KABQ 131610
RWRNM
NEW MEXICO REGIONAL WEATHER ROUNDUP
NATIONAL WEATHER SERVICE ALBUQUERQUE NM
900 AM MST WED DEC 13 2017

NOTE: "FAIR" MEANS FEW OR NO CLOUDS BELOW 12,000 FEET AGL WITH NO
       SIGNIFICANT WEATHER OR OBSTRUCTIONS TO VISION.

      THIS PRODUCT IS RELEASED AS TWO VERSIONS.  ONE VERSION NEAR
      THE TOP OF THE HOUR CONTAINING PRELIMINARY DATA FROM ALBUQUERQUE
      AND OTHER STATIONS.  A FINAL VERSION WITH ADDITIONAL DATA IS
      ISSUED ABOUT 10 MINUTES AFTER THE HOUR.

NMZ501-503-504-510>518-131700-
NORTHWEST PLATEAU/NORTHCENTRAL MOUNTAINS

CITY           SKY/WX    TMP DP  RH WIND       PRES   REMARKS
FARMINGTON     FAIR      22   1  40 E8        30.25S WCI  12
LOS ALAMOS     FAIR      37   4  25 N9        30.21R WCI  31
SANTA FE       FAIR      31   6  35 N14       30.20R WCI  21
TAOS           FAIR      30  10  43 VRB3      30.25S
ANGEL FIRE     FAIR      24  13  65 CALM      30.26S

$$
NMZ402-403-502-505>509-131700-
WESTCENTRAL MOUNTAINS/SOUTHWEST MOUNTAINS

CITY           SKY/WX    TMP DP  RH WIND       PRES   REMARKS
GALLUP         FAIR      22  -3  33 CALM      30.25S
GRANTS         FAIR      24  -3  31 NW9       30.26S WCI  14
SILVER CITY    FAIR      46   2  16 CALM      30.20S

$$
NMZ407-409-411-412-131700-
SOUTHERN DESERTS

CITY           SKY/WX    TMP DP  RH WIND       PRES   REMARKS
DEMING         FAIR      39   7  26 CALM      30.20S
LAS CRUCES     FAIR      40  10  28 CALM      30.20S
HOLLOMAN AFB   FAIR      35  12  39 CALM      30.21S
ALAMOGORDO     FAIR      37  12  35 CALM      30.19S
T OR C         FAIR      40   5  23 N6        30.20S

$$
NMZ519>523-131700-
CENTRAL VALLEYS/CENTRAL HIGHLANDS

CITY           SKY/WX    TMP DP  RH WIND       PRES   REMARKS
ALBUQUERQUE    FAIR      34   6  31 N5        30.21S WCI  30
DOUBLE EAGLE   SUNNY     39   3  22 W6        30.21S WCI  35
MORIARTY ARPT  FAIR      35   8  32 N6        30.20S WCI  30
CLINES CORNERS FAIR      39   5  24 NW17G26   30.18R WCI  30
BELEN          FAIR      32   2  28 CALM      30.23R
SOCORRO        FAIR      31   2  29 N12       30.22S WCI  22

$$
NMZ524>526-539-540-131700-
SOUTHCENTRAL MOUNTAINS

CITY           SKY/WX    TMP DP  RH WIND       PRES   REMARKS
RUIDOSO        FAIR      46  -2  13 W8        30.19R

$$
NMZ527>531-131700-
NORTHEAST HIGHLANDS/NORTHEAST PLAINS

CITY           SKY/WX    TMP DP  RH WIND       PRES   REMARKS
LAS VEGAS      FAIR      46   8  21 NE7       30.15R
RATON          FAIR      46   9  22 NE25G31   30.15R
CLAYTON        FAIR      51   7  16 N29G36    30.12R

$$
NMZ532>537-131700-
EASTCENTRAL PLAINS

CITY           SKY/WX    TMP DP  RH WIND       PRES   REMARKS
SANTA ROSA     FAIR      48   9  20 NW3       30.08R
TUCUMCARI      FAIR      47  12  24 NW6       30.08R
CANNON AFB     FAIR      46   9  22 NW12      30.07R
CLOVIS AIRPORT FAIR      48  12  23 NW12      30.07R

$$
NMZ028-029-538-131700-
SOUTHEAST PLAINS

CITY           SKY/WX    TMP DP  RH WIND       PRES   REMARKS
ROSWELL        FAIR      37   9  31 CALM      30.09S
ARTESIA        FAIR      37   9  30 CALM      30.10F
CARLSBAD       FAIR      39  21  48 N7        30.10S WCI  34
HOBBS          SUNNY     46  16  29 SW3       30.10R


$$



USA.gov is the U.S. government's official web portal to all federal, state and local government web resources and services.